Regional Weather Roundup
Issued by NWS Midland/Odessa, TX

Skip options and go directly to product.
Home | Oldest Version | Next Version | Current Version | All | Text Only | Save Text | Print | Product List | Glossary On

Skip product version selection by date and time.   
294
ASUS44 KMAF 181410
RWRMAF
MIDLAND AREA WEATHER ROUNDUP
NATIONAL WEATHER SERVICE MIDLAND TX
900 AM CDT THU SEP 18 2014

...IN SOUTHWEST TEXAS AND SOUTHEAST NEW MEXICO...

CITY           SKY/WX    TMP DP  RH WIND       PRES   REMARKS
ALPINE         PTSUNNY   68  63  85 CALM      30.09S
ANDREWS        DRIZZLE   67  65  94 NW9       29.98F
ARTESIA        NOT AVBL
BIG SPRING     CLOUDY    74  71  91 SE5       29.98S
CARLSBAD       LGT RAIN  66  32  28 SW5       29.98R
DRYDEN           N/A     78  70  76 NE7       29.90R
FORT STOCKTON  CLOUDY    72  68  87 W9        29.96R
GUAD PASS      CLOUDY    60  59  96 NE20      30.10R
HOBBS          LGT RAIN  64  64 100 SW5       30.02F
MARFA          PTSUNNY   66  64  94 N5        30.07S
MIDLAND AIRPK  CLOUDY    71  71 100 CALM      29.98S FOG
MIDLAND INTL   CLOUDY    71  69  93 N7        29.97S FOG
ODESSA         CLOUDY    71  68  90 N8        29.98S
PECOS          CLOUDY    69  65  86 NW7       29.96R
PRESIDIO       FAIR      75  67  74 N7        29.92R
SEMINOLE       CLOUDY    66  65  94 W3        30.00S
SNYDER         CLOUDY    70  69  97 E6        29.96S
WINK           CLOUDY    70  68  93 NE9       29.94S
$$
...OTHER STATIONS IN TEXAS...

CITY           SKY/WX    TMP DP  RH WIND       PRES   REMARKS
ABILENE        CLOUDY    74  70  87 CALM      29.94S
AMARILLO       PTSUNNY   64  63  96 S8        30.03R
AUSTIN         CLOUDY    73  71  93 SW3       29.89F
BROWNSVILLE    SUNNY     83  79  88 SE8       29.87R
CORPUS CHRISTI CLOUDY    80  77  90 S5        29.87R
DALLAS FTW     CLOUDY    77  72  84 SE7       29.93R
DEL RIO        CLOUDY    77  72  84 SE10      29.86S
EL PASO        LGT RAIN  66  63  90 N10       29.98R
HOUSTON INT    CLOUDY    78  77  96 E6        29.89R
LUBBOCK        TSTM      67  65  93 E7        30.00R
SAN ANGELO     PTSUNNY   74  69  85 E5        29.94R
SAN ANTONIO    CLOUDY    80  73  79 S9        29.90S
WACO           CLOUDY    75  74  96 SE6       29.90S FOG
WICHITA FALLS  NOT AVBL
$$
...OTHER LOCATIONS IN NEW MEXICO...

CITY           SKY/WX    TMP DP  RH WIND       PRES   REMARKS
ALAMAGORDO     CLOUDY    64  64 100 CALM      30.01F
ALBUQUERQUE    MOSUNNY   59  49  69 N8        30.10R
CANNON AFB     CLOUDY    65  64  97 NE6       30.04R
CLOVIS           N/A     64  63  94 E8        30.07R
HOLLOMAN AFB   PTSUNNY   65  62  88 CALM      30.00R
ROSWELL        LGT RAIN  66  64  93 S8        30.00R
RUIDOSO        CLOUDY    57  57 100 SW3       30.18S
SANTA FE       MOSUNNY   54  44  69 N15       30.14R
TRUTH OR CONSE CLOUDY    64  61  90 CALM      30.04R
TUCUMCARI      MOSUNNY   64  61  90 CALM      30.02R
$$

USA.gov is the U.S. government's official web portal to all federal, state and local government web resources and services.